Regional Weather Roundup
Issued by NWS Green Bay, WI

Home | Current Version | Previous Version | Text Only | Print | Product List | Glossary On
Versions: 1 2 3 4 5 6 7 8 9 10 11 12 13 14 15 16 17 18 19 20 21 22 23 24 25 26 27 28 29 30 31 32 33 34 35 36 37 38 39 40 41 42 43 44 45 46 47 48 49 50
000
ASUS43 KGRB 290110
RWRGRB

NORTH-CENTRAL AND NORTHEAST WISCONSIN REGIONAL WEATHER ROUNDUP
NATIONAL WEATHER SERVICE GREEN BAY WI
700 PM CST FRI NOV 28 2014

WIZ005-009-010>012-018-019-290200-
NORTH CENTRAL WISCONSIN

CITY           SKY/WX    TMP DP  RH WIND       PRES   REMARKS
IRONWOOD       CLOUDY    16  10  79 CALM      29.85F
MANITOWISH WTR CLOUDY    13  11  91 SE3       29.86R
ARBOR VITAE    CLOUDY    17  13  87 SE3       29.85S
EAGLE RIVER    MOCLDY    12   9  85 CALM      29.86F
LAND O LAKES   CLOUDY    14  11  87 SE3       29.87S
RHINELANDER    CLOUDY    14  10  84 SE7       29.86F WCI   4
PHILLIPS       CLOUDY    15  11  85 SE5       29.86R WCI   8
ANTIGO         CLOUDY    15  13  92 SE6       29.87F WCI   6
TOMAHAWK       CLOUDY    15  12  88 CALM      29.87F
MERRILL        MOCLDY    16  13  88 SE5       29.87F WCI   9
$$

WIZ013-073-290200-
NORTHEAST WISCONSIN

CITY           SKY/WX    TMP DP  RH WIND       PRES   REMARKS
IRON MOUNTAIN  CLOUDY    15  11  83 CALM      29.91F
MARINETTE      CLOUDY    21  19  93 NW5       29.93F
OCONTO         CLOUDY    21  21  98 CALM      29.94F
$$

WIZ017-030-035>037-045-290200-
CENTRAL WISCONSIN

CITY           SKY/WX    TMP DP  RH WIND       PRES   REMARKS
MEDFORD        FLURRIES  17  14  87 SE6       29.83F WCI   9
WAUSAU         MOCLDY    18  14  84 E8        29.86F WCI   8
MOSINEE        FLURRIES  18  18 100 SE6       29.88F WCI   9
MARSHFIELD     CLOUDY    21  16  81 SE9       29.86F
WISC RAPIDS    MOCLDY    22  16  78 SE7       29.89F
STEVENS POINT  MOCLDY    18  15  88 E3        29.90S
WAUPACA        CLOUDY    25  20  81 CALM      29.92F
SHAWANO        CLOUDY    22  19  88 NE3       29.93F
CLINTONVILLE   CLOUDY    21  19  93 CALM      29.92F
$$

WIZ038-039-048-051-290200-
FOX VALLEY

CITY           SKY/WX    TMP DP  RH WIND       PRES   REMARKS
NWS GREEN BAY  LGT SNOW  25  23  92 S3        29.95S FOG
APPLETON       CLOUDY    25  19  80 VRB5      29.93F
OSHKOSH        CLOUDY    26  19  74 MISG      29.92F
FOND DU LAC    CLOUDY    27  19  72 S6        29.93R
$$

WIZ022-050-052-290200-
EAST CENTRAL WISCONSIN

CITY           SKY/WX    TMP DP  RH WIND       PRES   REMARKS
STURGEON BAY   CLOUDY    25  21  86 S6        29.93F
MANITOWOC      FLURRIES  29  25  85 S8        29.94F
SHEBOYGAN      CLOUDY    28  22  78 S5        29.94F
$$

LMZ563-521-522-541>543-290200-
LAKESHORE

STATION/POSITION TIME  TEMP    WIND        PRES    VSBY  WAVE
                       AIR SEA DIR/SP/G                  HT/PER
                 (UTC) (F)     (DEG/KT/KT) (MB)    (MI)  (FT/S)
SHEBOYGAN LKSHOR 0100   33 35  190/ 14/ 18 1015.1F
KEWAUNEE LKSHORE 0100   27     250/  5/ 12 1013.5F
NORTHPORT PIER   0100   32     160/ 12/ 18 1013.9F
N MID LAKE BUOY  0100   31 42  170/ 19/ 23 1015.6F         4/ 5
SISTER BAY LKSHO 0000          170/  7/ 10   N/A
CHAMBERS ISLAND  0100   29      CALM  /  7 1013.9S
MENOMINEE LKSHOR 0100   25     240/  7/  9 1014.5F
$$



USA.gov is the U.S. government's official web portal to all federal, state and local government web resources and services.